Regional Weather Roundup
Issued by NWS Spokane, WA

Home | Current Version | Previous Version | Text Only | Print | Product List | Glossary On
Versions: 1 2 3 4 5 6 7 8 9 10 11 12 13 14 15 16 17 18 19 20 21 22 23 24 25 26 27 28 29 30 31 32 33 34 35 36 37 38 39 40 41 42 43 44 45 46 47 48 49 50
000
NZUS01 KOTX 202325
RWROTX

Eastern Washington/Northern Idaho Roundup
National Weather Service, Spokane WA
400 PM PDT WED SEP 20 2017

Note: "fair" indicated few or no clouds below 12,000 feet with no
significant weather and/or obstructions to visibility.

...Northeast Washington and Northern Idaho Panhandle...

CITY           SKY/WX    TMP DP  RH WIND       PRES   REMARKS
Spokane Intl   LGT RAIN  44  44 100 SW7       29.67R
Spokane Downto LGT RAIN  47  44  90 S7        29.68R
Coeur d Alene  RAIN      44  41  89 SW8       29.67R
Deer Park      PTSUNNY   48  41  76 S13       29.66R
Sandpoint      PTSUNNY   52  37  58 SW8       29.63R
Bonners Ferry  FAIR      54  37  54 SW7       29.59S

...Southeast Washington and southern Idaho Panhandle...

CITY           SKY/WX    TMP DP  RH WIND       PRES   REMARKS
Walla Walla    PTSUNNY   58  46  64 W16       29.68S
Pullman/Moscow PTSUNNY   48  42  80 SW12G20   29.69S
Lewiston       PTSUNNY   54  43  66 NW3       29.68S
Lowell           N/A     51  46  83 N5        29.70F
Grangeville    CLOUDY    45  37  76 NW10G20   29.69R

...Columbia Basin...

CITY           SKY/WX    TMP DP  RH WIND       PRES   REMARKS
Ephrata        PTSUNNY   55  41  59 S8        29.65R
Moses Lake     LGT RAIN  53  42  66 SW7       29.67S
Pasco          MOSUNNY   59  46  62 NW9       29.69R
Richland       PTCLDY    59  46  62 NW5       29.69S
Hermiston      MOSUNNY   65  42  43 W17G26    29.67R
Pendleton      MOSUNNY   57  40  52 W16       29.68R

...East Slopes Cascades...

CITY           SKY/WX    TMP DP  RH WIND       PRES   REMARKS
The Dalles     CLOUDY    53  45  74 NW15G22   29.74R
Yakima         MOSUNNY   59  40  49 CALM      29.68R
Ellensburg     CLOUDY    60  39  45 VRB3      29.66R
Stampede Pass  FOG       39  38  96 VRB5      29.71R VSB 1/4
Wenatchee      MOSUNNY   58  38  47 E9        29.62S
Omak           MOSUNNY   62  38  40 S10       29.59R
Chelan           N/A     61  32  33 E8          N/A
Sunnyside      PTCLDY    54  41  61 SW7       29.69S

...Southern British Columbia...

CITY           SKY/WX    TMP DP  RH WIND       PRES   REMARKS
Penticton      PTSUNNY   63  37  39 SW7       29.57S
Castlegar      PTSUNNY   59  37  44 S16       29.55R
Cranbrook      PTSUNNY   54  23  30 W12       29.52R
Osoyoos          N/A     63  34  34 NW10G22     N/A
Creston          N/A     55  39  54 S8          N/A

...Western Montana...

CITY           SKY/WX    TMP DP  RH WIND       PRES   REMARKS
Kalispell      CLOUDY    53  30  41 W9        29.58R
Libby            N/A     52  37  58 E8        29.59R
Missoula       CLOUDY    46  41  82 SE6       29.66F

...Neighboring Cities...

CITY           SKY/WX    TMP DP  RH WIND       PRES   REMARKS
Seattle        PTSUNNY   56  47  71 SW10      29.75R
Portland       LGT RAIN  52  50  93 E3        29.78R FOG
Boise          CLOUDY    53  48  83 NE8       29.73F
Great Falls    SUNNY     56  31  38 SW18      29.56R
Calgary        PTSUNNY   41  37  87 N9        29.47R



USA.gov is the U.S. government's official web portal to all federal, state and local government web resources and services.